Regional Weather Roundup
Issued by NWS

Home | Current Version | Previous Version | Text Only | Print | Product List | Glossary On
Versions: 1 2 3 4 5 6 7 8 9 10 11 12 13 14 15 16 17 18 19 20 21 22 23 24 25 26 27 28 29 30 31 32 33 34 35 36 37 38 39 40 41 42 43 44 45 46 47 48 49 50
000
ASUS43 KLOT 161608
RWRIL

ILLINOIS REGIONAL WEATHER ROUNDUP
NATIONAL WEATHER SERVICE CHICAGO/ROMEOVILLE IL
1000 AM CST SAT DEC 16 2017

NOTE: "FAIR" INDICATES FEW OR NO CLOUDS BELOW 12,000 FEET WITH NO
SIGNIFICANT WEATHER AND/OR OBSTRUCTIONS TO VISIBILITY.

* THESE STATIONS ARE NOT UNDER NWS QUALITY CONTROL. THEY ALSO MAY NOT
  REPORT WEATHER SUCH AS PRECIPITATION OR FOG.

ILZ001-002-007-009-015-016-024-161700-
NORTHWEST ILLINOIS

CITY           SKY/WX    TMP DP  RH WIND       PRES   REMARKS
MOLINE         SUNNY     42  26  53 SW12      29.86R
STERLING*      SUNNY     39  26  59 W8        29.87R WCI  33
SAVANNA*       SUNNY     38  26  63 S5        29.86R WCI  34
$$

ILZ003-004-008-010-011-017-018-161700-
NORTH CENTRAL ILLINOIS

CITY           SKY/WX    TMP DP  RH WIND       PRES   REMARKS
ROCKFORD       MOSUNNY   37  25  61 S8        29.89R WCI  31
FREEPORT*      SUNNY     35  26  68 SW5       29.88R WCI  31
ROCHELLE*      SUNNY     39  27  61 SW15      29.88R WCI  31
DE KALB*       SUNNY     37  27  67 S9        29.89R WCI  30
PERU*          SUNNY     39  25  57 SW16      29.90R WCI  30
$$

ILZ005-006-012>014-019>023-161700-
NORTHEAST ILLINOIS

CITY           SKY/WX    TMP DP  RH WIND       PRES   REMARKS
CHICAGO-OHARE  MOSUNNY   39  25  57 SW10      29.90R WCI  32
CHICAGO-MIDWAY MOSUNNY   39  26  59 SW10      29.91R WCI  32
AURORA         SUNNY     37  26  64 S9        29.90R WCI  30
LANSING*       SUNNY     38  28  66 SW12      29.93R WCI  31
JOLIET*        SUNNY     39  27  60 SW6       29.92R
WAUKEGAN       MOSUNNY   39  26  59 VRB6      29.88R WCI  35
DUPAGE AIRPORT SUNNY     37  26  64 SW9       29.89R WCI  30
KANKAKEE*      SUNNY     40  26  56 SW16      29.95R
WHEELING       SUNNY     39  26  59 SW9       29.91R WCI  33
MORRIS*        SUNNY     40  26  57 SW13      29.91R
ROMEOVILLE*    SUNNY     38  26  61 SW10      29.91R WCI  32
NORTHERLY ISL    N/A     38  24  57 SW8         N/A  WCI  32
$$

LMZ740>746-161700-
SOUTHERN LAKE MICHIGAN

STATION/POSITION SKY/WX   TEMP    WIND        PRES    VSBY  WAVE
                          AIR SEA DIR/SP/G                  HT/PER
                          (F)     (DEG/KT/KT) (MB)    (MI)  (FT/S)
HARRISON CRIB              38     230/ 12/ 14   N/A
BURNHAM HARBOR             38     220/  4/ 10   N/A
BURNS HARBOR               38     210/ 13/ 15 1014.2R
MICHIGAN CITY              37     210/ 13/ 14   N/A
$$

ILZ025>027-034>036-040-047-049-050-058-095>099-161700-
WEST-CENTRAL ILLINOIS

CITY           SKY/WX    TMP DP  RH WIND       PRES   REMARKS
QUINCY         SUNNY     44  26  49 SW18G26   29.91R
GALESBURG*     SUNNY     42  29  58 SW13      29.90R
MACOMB*        SUNNY     42  27  54 SW16      29.92R
JACKSONVILLE*  SUNNY     44  26  48 SW22G29   29.93S
PITTSFIELD*    SUNNY     46  27  49 SW16      29.94R
$$

ILZ028>032-037-038-041>044-048-051>054-059>061-161700-
CENTRAL ILLINOIS

CITY           SKY/WX    TMP DP  RH WIND       PRES   REMARKS
PONTIAC        SUNNY     42  27  56 SW15      29.93R
BLOOMINGTON    SUNNY     40  26  57 SW23G29   29.93R
DECATUR        SUNNY     42  27  55 SW22      29.97R
PEORIA         SUNNY     40  27  59 SW13      29.92R
LACON*         SUNNY     40  26  59 SW9       29.89R
LINCOLN*       SUNNY     45  28  52 SW8G18    29.95R
SPRINGFIELD    SUNNY     45  27  49 SW14G24   29.95R
TAYLORVILLE    SUNNY     42  27  55 SW18G25   29.98R
$$

ILZ033-039-045-046-055>057-062-063-161700-
EAST-CENTRAL ILLINOIS

CITY           SKY/WX    TMP DP  RH WIND       PRES   REMARKS
CHAMPAIGN      SUNNY     43  27  53 SW20G28   29.97R
DANVILLE*      SUNNY     41  28  58 SW17G23   29.95R
RANTOUL*       SUNNY     43  29  57 SW25      29.95R
MATTOON        SUNNY     41  29  62 SW17G28   29.99R
PARIS*         SUNNY     41  29  63 SW21G26   30.02R
$$

ILZ079-100>102-161700-
SOUTHWEST ILLINOIS

CITY           SKY/WX    TMP DP  RH WIND       PRES   REMARKS
ALTON          SUNNY     43  30  61 SW14G21   30.01S
BELLEVILLE     SUNNY     45  29  53 SW13      30.03R
CAHOKIA*       SUNNY     45  25  45 SW13G24   30.02S
SPARTA*        SUNNY     43  31  63 S13G18    30.08R
$$

ILZ064>066-069>071-074>076-080>082-084>086-088>090-092>094-161700-
SOUTH-CENTRAL ILLINOIS

CITY           SKY/WX    TMP DP  RH WIND       PRES   REMARKS
CARBONDALE     SUNNY     42  31  64 SW18G25   30.11S
CAIRO*         SUNNY     42  32  68 SW10      30.18R
EFFINGHAM*     SUNNY     43  31  62 S16G24    30.05S
MARION         MOSUNNY   45  32  61 SW15      30.13R
MT. VERNON     SUNNY     43  31  62 SW17      30.08S
CENTRALIA*     SUNNY     44  32  62 SW17      30.05S
SALEM*         SUNNY     45  29  53 SW20      30.05S
METROPOLIS*    SUNNY     43  32  65 SW10      30.18R
$$

ILZ067-068-072-073-078-083-087-091-161700-
SOUTHEAST ILLINOIS

CITY           SKY/WX    TMP DP  RH WIND       PRES   REMARKS
LAWRENCEVILLE  SUNNY     42  31  64 SW18      30.09R
FLORA*         SUNNY     43  32  65 SW15      30.07S
FAIRFIELD*     SUNNY     42  32  67 S10       30.09S
HARRISBURG*    SUNNY     41  32  70 SW13      30.14S
ROBINSON*      SUNNY     41  30  65 SW18G25   30.07S
CARMI*         SUNNY     42  32  67 S15       30.12S
$$

ABBREVIATIONS USED IN REMARKS
   TC - TEMPERATURE IN CELSIUS
  WCI - WIND CHILL INDEX
   HX - HEAT INDEX
  VSB - VISIBILITY
$$





USA.gov is the U.S. government's official web portal to all federal, state and local government web resources and services.